Weather Service Report


060 
ASUS41 KGYX 041610
RWRGYX
WEATHER ROUNDUP FOR MAINE AND NEW HAMPSHIRE
NATIONAL WEATHER SERVICE GRAY ME
1100 AM EST WED MAR 04 2015

MEZ002-005-006-010-012-015-018-020-021-024-026-027-029-041700-
MAINE
  
CITY           SKY/WX    TMP DP  RH WIND       PRES   REMARKS
PORTLAND       CLOUDY    39  30  70 W10       29.68R                  
SANFORD        CLOUDY    37  28  70 SW12      29.70R                  
BAR HARBOR     CLOUDY    37  34  87 SW8       29.63S                  
WISCASSET      CLOUDY    36  31  82 VRB5      29.69R                  
ROCKLAND       CLOUDY    36  32  87 W7        29.65F                  
FRYEBURG       CLOUDY    39  31  72 NW5       29.64S                  
LEWISTONAUBURN CLOUDY    36  30  80 S7        29.65S                  
AUGUSTA        CLOUDY    35  27  72 SW5       29.65R                  
WATERVILLE     CLOUDY    36  25  64 SW8       29.61S                  
BANGOR         CLOUDY    37  26  64 VRB7      29.62S                  
GREENVILLE       N/A     31  18  58 VRB7G17   29.53R                  
MILLINOCKET    PTSUNNY   37  21  52 W10G20    29.57R                  
HOULTON        PTSUNNY   33  24  69 W14G20    29.52R                  
PRESQUE ISLE   CLOUDY    30  18  59 W15G24    29.51R WCI  19          
FRENCHVILLE    CLOUDY    26  16  65 W17G31    29.44S WCI  13          
CARIBOU        CLOUDY    32  20  61 W12G23    29.48R                  
$$

NHZ002-005-008-009-011-012-014-041700-
NEW HAMPSHIRE
  
CITY           SKY/WX    TMP DP  RH WIND       PRES   REMARKS
ROCHESTER      CLOUDY    40  31  70 CALM      29.70R                  
NASHUA         CLOUDY    43  29  58 W13G20    29.75R                  
MANCHESTER     CLOUDY    41  30  65 W6        29.72R                  
CONCORD        CLOUDY    40  29  64 CALM      29.71R                  
LACONIA        CLOUDY    39  27  60 W13       29.67R                  
PLYMOUTH       CLOUDY    38  31  74 W13G18    29.69R                  
BERLIN         CLOUDY    35  24  64 VRB7      29.64R                  
WHITEFIELD     CLOUDY    35  24  64 W9        29.67R                  
JAFFREY        CLOUDY    38  27  64 W9G20     29.71R                  
KEENE          CLOUDY    39  28  65 CALM      29.76R                  
LEBANON        PTSUNNY   39  27  62 NW10      29.71R                  
MT WASHINGTON  FOG       12  12 100 NW48G58     N/A  VSB 0   WCI -13  
$$

VTZ005-007-008-041700-
VERMONT
  
CITY           SKY/WX    TMP DP  RH WIND       PRES   REMARKS
ST JOHNSBURY     N/A     37  22  54 MISG      29.67R                  
MONTPELIER     CLOUDY    33  24  69 W7        29.72R                  
BURLINGTON     PTSUNNY   37  21  52 NW7G17    29.73F                  
$$

MAZ007-012-024-CTZ003-RIZ002-NYZ038-NYZ072-041700-
SOUTHERN NEW ENGLAND AND NY
  
CITY           SKY/WX    TMP DP  RH WIND       PRES   REMARKS
BOSTON         CLOUDY    42  32  67 W14       29.77R                  
WORCESTER      CLOUDY    37  30  75 W15G25    29.73S                  
NANTUCKET      CLOUDY    37  35  92 W14       29.84R FOG              
PROVIDENCE     CLOUDY    40  34  79 W7        29.81R                  
HARTFORD       CLOUDY    42  34  73 SW3       29.80S                  
ALBANY         CLOUDY    36  27  69 W7        29.85R                  
NEW YORK CITY  CLOUDY    42  36  79 SW9       29.88R                  
$$

ANZ081-ANZ082-ANZ150-NHZ014-MEZ023>029-041700-
COASTAL MARINE OBSERVATIONS
  
STATION/POSITION TIME  TEMP    WIND        PRES    WAVE
                       AIR SEA DIR/SP/G            HT/PER
                 (UTC) (F)     (DEG/KT/KT) (MB)    (FT/S)
MOUNT DESERT ROC 1500   36                 1003.6R
MATINICUS ROCK   1500   36     270/ 19/ 20 1004.2F
WELLS            1500   34     220/  3/  4 1005.2R
ISLE OF SHOALS   1500   37     220/ 10/ 11 1005.7R
JEFFREYS LEDGE   1521      40                N/A     5/ 7
CASHES LEDGE BUO 1550   41 40              1004.1R   7/ 8
$$

.............KEY..............
   WCI - WIND CHILL
   TC  - TEMPERATURE IN CELSIUS
   VSB - VISIBILITY IN MILES
   HX  - HEAT INDEX
   FAIR- INDICATES FEW OR NO CLOUDS BELOW 12,000 FT, WITH NO 
         SIGNIFICANT WEATHER AND/OR OBSTRUCTIONS TO VISIBILITY.



Return to Home page


Western Regional Climate Center, wrcc@dri.edu